Regional Weather Roundup
Issued by NWS Sioux Falls, SD

Home | Current Version | Previous Version | Graphics & Text | Print | Product List | Glossary Off
Versions: 1 2 3 4 5 6 7 8 9 10 11 12 13 14 15 16 17 18 19 20 21 22 23 24 25 26 27 28 29 30 31 32 33 34 35 36 37 38 39 40 41 42 43 44 45 46 47 48 49 50

000
ASUS43 KFSD 181102
RWRFSD

WEATHER ROUNDUP FOR SE SOUTH DAKOTA/SW MINNESOTA/NW IOWA
NATIONAL WEATHER SERVICE SIOUX FALLS SD
600 AM CDT THU SEP 18 2014

NOTE: "FAIR" INDICATES FEW OR NO CLOUDS BELOW 12,000 FEET WITH NO
SIGNIFICANT WEATHER AND OR OBSTRUCTIONS TO VISIBILITY.


SDZ038>040-050-052>070-181200-
SOUTHEAST SOUTH DAKOTA

CITY           SKY/WX    TMP DP  RH WIND       PRES   REMARKS
CHAMBERLAIN    MOCLDY    55  53  94 E7        29.93F
HURON          CLEAR     53  50  89 SE3       29.95S
MADISON        FAIR      48  48 100 SE3       29.98F
MITCHELL       CLEAR     50  50 100 E3        29.95F FOG
SIOUX FALLS    MOCLDY    55  52  89 E6        29.98S
WINNER         FAIR      59  55  87 SE10      29.92S
YANKTON        CLEAR     55  54  94 E7        29.96S
$$

MNZ071-072-080-081-089-090-097-098-181200-
SOUTHWEST MINNESOTA

CITY           SKY/WX    TMP DP  RH WIND       PRES   REMARKS
FAIRMONT       CLEAR     48  45  87 CALM      30.03R
JACKSON        CLEAR     50  46  87 CALM      30.03S
LUVERNE        MOCLDY    55  52  88 CALM      30.00S
MARSHALL       PTCLDY    48  45  87 NE7       30.00R
MONTEVIDEO     MOCLDY    52  52 100 SE10      30.03S FOG
PIPESTONE      MOCLDY    54  52  94 SE5       30.00S
REDWOOD FALLS  MOCLDY    52  51  97 E9        30.03R FOG
TRACY          PTCLDY    58  54  85 S7        30.00F
WINDOM           N/A     48  46  93 CALM      30.02S FOG
WORTHINGTON    MOCLDY    52  48  87 SE6       30.02S
$$

IAZ001>003-012>014-020>022-031-032-NEZ013-014-SDZ071-181200-
NORTHWEST IOWA

CITY           SKY/WX    TMP DP  RH WIND       PRES   REMARKS
CHEROKEE       CLEAR     51  51 100 CALM      30.01R
DENISON        CLEAR     54  54 100 CALM      29.99R
ESTHERVILLE    CLEAR     47  47 100 SE3       30.02S FOG
LE MARS          N/A     54  54 100 CALM      30.00S
ORANGE CITY    PTCLDY    57  54  88 E5        30.00S
SHELDON        CLOUDY    52  52 100 SE3       30.00R
SIOUX CITY     CLOUDY    58  56  93 SE7       29.99R
SPENCER        PTCLDY    47  45  93 E5        30.02S
STORM LAKE     CLEAR     52  52 100 SE6       30.01S FOG
$$

ABBREVIATIONS USED IN REMARKS
   TC - TEMPERATURE IN CELSIUS
  WCI - WIND CHILL INDEX
   HX - HEAT INDEX
  VSB - VISIBILITY




USA.gov is the U.S. government's official web portal to all federal, state and local government web resources and services.